Time,TemperatureF,DewpointF,PressureIn,WindDirection,WindDirectionDegrees,WindSpeedMPH,WindSpeedGustMPH,Humidity,HourlyPrecipIn,Conditions,Clouds,dailyrainin,SoftwareType,DateUTC
2013-04-23 00:08:00,56.5,55.0,30.09,East,95,0.0,0.0,94,0.00,,,0.00,weatherlink.com 1.10,2013-04-23 04:08:00,
2013-04-23 00:23:00,56.5,55.0,30.10,East,95,0.0,0.0,95,0.00,,,0.00,weatherlink.com 1.10,2013-04-23 04:23:00,
2013-04-23 00:38:00,56.5,55.0,30.09,East,96,0.0,0.0,96,0.00,,,0.00,weatherlink.com 1.10,2013-04-23 04:38:00,
2013-04-23 00:53:00,56.7,56.0,30.09,East,96,0.0,0.0,96,0.00,,,0.00,weatherlink.com 1.10,2013-04-23 04:53:00,
2013-04-23 01:09:00,56.7,56.0,30.09,East,96,0.0,0.0,96,0.00,,,0.00,weatherlink.com 1.10,2013-04-23 05:09:00,
2013-04-23 01:23:00,56.5,55.0,30.09,ESE,120,0.0,0.0,96,0.00,,,0.00,weatherlink.com 1.10,2013-04-23 05:23:00,
2013-04-23 01:39:00,56.2,55.0,30.09,ESE,120,0.0,0.0,96,0.00,,,0.00,weatherlink.com 1.10,2013-04-23 05:39:00,
2013-04-23 01:54:00,56.1,55.0,30.08,ESE,120,0.0,0.0,96,0.00,,,0.00,weatherlink.com 1.10,2013-04-23 05:54:00,
2013-04-23 02:09:00,56.4,55.0,30.08,SE,142,0.0,1.0,96,0.00,,,0.00,weatherlink.com 1.10,2013-04-23 06:09:00,
2013-04-23 02:24:00,56.1,55.0,30.08,SE,142,0.0,0.0,96,0.00,,,0.00,weatherlink.com 1.10,2013-04-23 06:24:00,
2013-04-23 02:39:00,55.7,55.0,30.08,SE,142,0.0,0.0,96,0.00,,,0.00,weatherlink.com 1.10,2013-04-23 06:39:00,
2013-04-23 02:54:00,55.6,55.0,30.07,SE,132,0.0,1.0,96,0.00,,,0.00,weatherlink.com 1.10,2013-04-23 06:54:00,
2013-04-23 03:09:00,55.6,55.0,30.07,SE,132,0.0,1.0,97,0.00,,,0.00,weatherlink.com 1.10,2013-04-23 07:09:00,
2013-04-23 03:24:00,55.5,54.0,30.07,SE,134,0.0,0.0,96,0.00,,,0.00,weatherlink.com 1.10,2013-04-23 07:24:00,
2013-04-23 03:39:00,55.3,54.0,30.07,SE,134,0.0,0.0,96,0.00,,,0.00,weatherlink.com 1.10,2013-04-23 07:39:00,
2013-04-23 03:54:00,55.2,54.0,30.07,SE,133,0.0,1.0,97,0.00,,,0.00,weatherlink.com 1.10,2013-04-23 07:54:00,
2013-04-23 04:09:00,55.9,55.0,30.07,ENE,78,0.0,2.0,97,0.00,,,0.00,weatherlink.com 1.10,2013-04-23 08:09:00,
2013-04-23 04:24:00,56.9,56.0,30.07,East,99,0.0,1.0,97,0.00,,,0.00,weatherlink.com 1.10,2013-04-23 08:24:00,
2013-04-23 04:39:00,57.3,56.0,30.07,WSW,240,0.0,1.0,96,0.00,,,0.00,weatherlink.com 1.10,2013-04-23 08:39:00,
2013-04-23 04:54:00,57.4,56.0,30.07,ENE,69,0.0,2.0,95,0.00,,,0.00,weatherlink.com 1.10,2013-04-23 08:54:00,
2013-04-23 05:09:00,57.4,56.0,30.08,ENE,68,0.0,1.0,95,0.00,,,0.00,weatherlink.com 1.10,2013-04-23 09:09:00,
2013-04-23 05:24:00,57.2,56.0,30.08,ENE,68,0.0,1.0,95,0.00,,,0.00,weatherlink.com 1.10,2013-04-23 09:24:00,
2013-04-23 05:39:00,56.3,55.0,30.08,ENE,68,0.0,0.0,95,0.00,,,0.00,weatherlink.com 1.10,2013-04-23 09:39:00,
2013-04-23 05:54:00,55.5,54.0,30.08,ENE,68,0.0,0.0,95,0.00,,,0.00,weatherlink.com 1.10,2013-04-23 09:54:00,
2013-04-23 06:09:00,54.9,54.0,30.08,ENE,68,0.0,0.0,96,0.00,,,0.00,weatherlink.com 1.10,2013-04-23 10:09:00,
2013-04-23 06:24:00,54.6,54.0,30.09,ENE,68,0.0,0.0,96,0.00,,,0.00,weatherlink.com 1.10,2013-04-23 10:24:00,
2013-04-23 06:39:00,55.0,54.0,30.09,ENE,68,0.0,0.0,97,0.00,,,0.00,weatherlink.com 1.10,2013-04-23 10:39:00,
2013-04-23 06:54:00,55.5,55.0,30.09,ENE,69,0.0,0.0,97,0.00,,,0.00,weatherlink.com 1.10,2013-04-23 10:54:00,
2013-04-23 07:09:00,55.7,55.0,30.09,ENE,69,0.0,1.0,97,0.00,,,0.00,weatherlink.com 1.10,2013-04-23 11:09:00,
2013-04-23 07:24:00,56.9,56.0,30.09,NE,53,1.0,1.0,98,0.00,,,0.00,weatherlink.com 1.10,2013-04-23 11:24:00,
2013-04-23 07:39:00,57.7,57.0,30.09,East,98,0.0,1.0,97,0.00,,,0.00,weatherlink.com 1.10,2013-04-23 11:39:00,
2013-04-23 07:54:00,58.2,57.0,30.10,East,86,0.0,2.0,95,0.00,,,0.00,weatherlink.com 1.10,2013-04-23 11:54:00,
2013-04-23 08:09:00,58.4,57.0,30.10,ESE,108,0.0,3.0,94,0.00,,,0.00,weatherlink.com 1.10,2013-04-23 12:09:00,
2013-04-23 08:24:00,59.2,58.0,30.11,East,87,0.0,2.0,95,0.00,,,0.00,weatherlink.com 1.10,2013-04-23 12:24:00,
2013-04-23 08:39:00,60.2,58.0,30.11,ESE,123,0.0,2.0,93,0.00,,,0.00,weatherlink.com 1.10,2013-04-23 12:39:00,
2013-04-23 08:54:00,61.1,59.0,30.11,ESE,112,0.0,2.0,92,0.00,,,0.00,weatherlink.com 1.10,2013-04-23 12:54:00,
2013-04-23 09:10:00,62.1,60.0,30.11,SE,137,0.0,3.0,91,0.00,,,0.00,weatherlink.com 1.10,2013-04-23 13:10:00,
2013-04-23 09:24:00,63.0,60.0,30.11,ENE,63,0.0,3.0,90,0.00,,,0.00,weatherlink.com 1.10,2013-04-23 13:24:00,
2013-04-23 09:39:00,63.7,60.0,30.12,East,80,1.0,2.0,88,0.00,,,0.00,weatherlink.com 1.10,2013-04-23 13:39:00,
2013-04-23 09:54:00,64.6,60.0,30.12,West,281,2.0,4.0,85,0.00,,,0.00,weatherlink.com 1.10,2013-04-23 13:54:00,
2013-04-23 10:10:00,67.3,61.0,30.11,SW,229,2.0,5.0,81,0.00,,,0.00,weatherlink.com 1.10,2013-04-23 14:10:00,
2013-04-23 10:25:00,68.8,60.0,30.12,ESE,108,3.0,6.0,73,0.00,,,0.00,weatherlink.com 1.10,2013-04-23 14:25:00,
2013-04-23 10:40:00,70.4,61.0,30.12,ESE,117,1.0,6.0,72,0.00,,,0.00,weatherlink.com 1.10,2013-04-23 14:40:00,
2013-04-23 10:55:00,71.3,58.0,30.13,East,89,2.0,8.0,64,0.00,,,0.00,weatherlink.com 1.10,2013-04-23 14:55:00,
2013-04-23 11:10:00,71.5,59.0,30.13,ESE,103,0.0,7.0,65,0.00,,,0.00,weatherlink.com 1.10,2013-04-23 15:10:00,
2013-04-23 11:25:00,72.2,59.0,30.13,SE,124,2.0,7.0,63,0.00,,,0.00,weatherlink.com 1.10,2013-04-23 15:25:00,
2013-04-23 11:40:00,72.3,60.0,30.13,ESE,115,2.0,8.0,66,0.00,,,0.00,weatherlink.com 1.10,2013-04-23 15:40:00,
2013-04-23 11:55:00,72.8,61.0,30.13,East,101,3.0,5.0,66,0.00,,,0.00,weatherlink.com 1.10,2013-04-23 15:55:00,
2013-04-23 12:10:00,73.2,60.0,30.12,SSE,158,1.0,6.0,64,0.00,,,0.00,weatherlink.com 1.10,2013-04-23 16:10:00,
2013-04-23 12:25:00,73.2,61.0,30.12,East,91,1.0,7.0,65,0.00,,,0.00,weatherlink.com 1.10,2013-04-23 16:25:00,
2013-04-23 12:40:00,73.2,61.0,30.12,South,187,2.0,7.0,66,0.00,,,0.00,weatherlink.com 1.10,2013-04-23 16:40:00,
2013-04-23 12:55:00,73.5,60.0,30.12,East,94,1.0,7.0,63,0.00,,,0.00,weatherlink.com 1.10,2013-04-23 16:55:00,
2013-04-23 13:10:00,74.0,61.0,30.11,SE,124,1.0,3.0,63,0.00,,,0.00,weatherlink.com 1.10,2013-04-23 17:10:00,
2013-04-23 13:25:00,74.2,60.0,30.11,ENE,77,2.0,5.0,61,0.00,,,0.00,weatherlink.com 1.10,2013-04-23 17:25:00,
2013-04-23 13:40:00,74.7,62.0,30.10,SSW,194,0.0,3.0,65,0.00,,,0.00,weatherlink.com 1.10,2013-04-23 17:40:00,
2013-04-23 13:55:00,75.7,62.0,30.10,SE,125,1.0,4.0,62,0.00,,,0.00,weatherlink.com 1.10,2013-04-23 17:55:00,
2013-04-23 14:10:00,75.3,61.0,30.10,SW,219,3.0,6.0,61,0.00,,,0.00,weatherlink.com 1.10,2013-04-23 18:10:00,
2013-04-23 14:25:00,74.9,60.0,30.10,SSW,201,1.0,5.0,61,0.00,,,0.00,weatherlink.com 1.10,2013-04-23 18:25:00,
2013-04-23 14:40:00,75.6,62.0,30.09,SSW,201,2.0,6.0,63,0.00,,,0.00,weatherlink.com 1.10,2013-04-23 18:40:00,
2013-04-23 14:55:00,75.7,61.0,30.09,ESE,113,1.0,3.0,61,0.00,,,0.00,weatherlink.com 1.10,2013-04-23 18:55:00,
2013-04-23 15:10:00,75.8,61.0,30.09,ESE,122,3.0,4.0,60,0.00,,,0.00,weatherlink.com 1.10,2013-04-23 19:10:00,
2013-04-23 15:25:00,75.9,60.0,30.08,ENE,76,1.0,4.0,59,0.00,,,0.00,weatherlink.com 1.10,2013-04-23 19:25:00,
2013-04-23 15:40:00,75.5,60.0,30.08,ESE,108,2.0,4.0,58,0.00,,,0.00,weatherlink.com 1.10,2013-04-23 19:40:00,
2013-04-23 15:55:00,76.3,60.0,30.07,SSW,195,0.0,3.0,57,0.00,,,0.00,weatherlink.com 1.10,2013-04-23 19:55:00,
2013-04-23 16:10:00,75.6,60.0,30.06,ESE,108,0.0,8.0,58,0.00,,,0.00,weatherlink.com 1.10,2013-04-23 20:10:00,
2013-04-23 16:25:00,76.3,60.0,30.06,ESE,110,1.0,5.0,58,0.00,,,0.00,weatherlink.com 1.10,2013-04-23 20:25:00,
2013-04-23 16:40:00,77.9,60.0,30.05,ESE,104,1.0,4.0,55,0.00,,,0.00,weatherlink.com 1.10,2013-04-23 20:40:00,
2013-04-23 16:55:00,77.9,60.0,30.05,South,187,0.0,3.0,55,0.00,,,0.00,weatherlink.com 1.10,2013-04-23 20:55:00,
2013-04-23 17:10:00,77.4,59.0,30.05,SE,128,0.0,4.0,53,0.00,,,0.00,weatherlink.com 1.10,2013-04-23 21:10:00,
2013-04-23 17:25:00,77.9,61.0,30.04,SSW,198,2.0,5.0,56,0.00,,,0.00,weatherlink.com 1.10,2013-04-23 21:25:00,
2013-04-23 17:40:00,78.0,61.0,30.04,SSW,201,3.0,6.0,56,0.00,,,0.00,weatherlink.com 1.10,2013-04-23 21:40:00,
2013-04-23 17:55:00,77.2,61.0,30.04,South,169,6.0,9.0,57,0.00,,,0.00,weatherlink.com 1.10,2013-04-23 21:55:00,
2013-04-23 18:10:00,75.8,62.0,30.03,SSW,200,1.0,7.0,62,0.00,,,0.00,weatherlink.com 1.10,2013-04-23 22:10:00,
2013-04-23 18:25:00,76.5,60.0,30.03,WSW,255,3.0,5.0,57,0.00,,,0.00,weatherlink.com 1.10,2013-04-23 22:25:00,
2013-04-23 18:40:00,76.1,62.0,30.04,SE,145,1.0,7.0,61,0.00,,,0.00,weatherlink.com 1.10,2013-04-23 22:40:00,
2013-04-23 18:55:00,76.2,61.0,30.03,South,184,3.0,5.0,60,0.00,,,0.00,weatherlink.com 1.10,2013-04-23 22:55:00,
2013-04-23 19:11:00,75.1,62.0,30.04,SSW,206,2.0,6.0,63,0.00,,,0.00,weatherlink.com 1.10,2013-04-23 23:11:00,
2013-04-23 19:26:00,74.4,61.0,30.03,South,177,3.0,5.0,64,0.00,,,0.00,weatherlink.com 1.10,2013-04-23 23:26:00,
2013-04-23 19:41:00,73.1,61.0,30.03,SSE,166,4.0,6.0,67,0.00,,,0.00,weatherlink.com 1.10,2013-04-23 23:41:00,
2013-04-23 19:56:00,71.8,62.0,30.04,SSW,196,3.0,4.0,70,0.00,,,0.00,weatherlink.com 1.10,2013-04-23 23:56:00,
2013-04-23 20:11:00,69.7,61.0,30.04,SSW,200,2.0,5.0,75,0.00,,,0.00,weatherlink.com 1.10,2013-04-24 00:11:00,
2013-04-23 20:26:00,68.2,61.0,30.04,SSW,195,3.0,4.0,79,0.00,,,0.00,weatherlink.com 1.10,2013-04-24 00:26:00,
2013-04-23 20:41:00,67.1,61.0,30.04,SSW,193,6.0,6.0,81,0.00,,,0.00,weatherlink.com 1.10,2013-04-24 00:41:00,
2013-04-23 20:56:00,66.3,61.0,30.05,South,188,2.0,5.0,82,0.00,,,0.00,weatherlink.com 1.10,2013-04-24 00:56:00,
2013-04-23 21:11:00,65.1,61.0,30.06,South,179,2.0,4.0,85,0.00,,,0.00,weatherlink.com 1.10,2013-04-24 01:11:00,
2013-04-23 21:26:00,64.3,60.0,30.06,SSW,210,1.0,3.0,87,0.00,,,0.00,weatherlink.com 1.10,2013-04-24 01:26:00,
2013-04-23 21:41:00,63.3,60.0,30.07,SSW,200,0.0,1.0,89,0.00,,,0.00,weatherlink.com 1.10,2013-04-24 01:41:00,
2013-04-23 21:56:00,62.0,59.0,30.07,SSW,200,0.0,0.0,91,0.00,,,0.00,weatherlink.com 1.10,2013-04-24 01:56:00,
2013-04-23 22:26:00,60.5,59.0,30.08,SSW,200,0.0,0.0,94,0.00,,,0.00,weatherlink.com 1.10,2013-04-24 02:26:00,
2013-04-23 22:41:00,59.7,58.0,30.07,SSW,200,0.0,0.0,94,0.00,,,0.00,weatherlink.com 1.10,2013-04-24 02:41:00,
2013-04-23 23:26:00,59.2,58.0,30.07,SSW,200,0.0,0.0,96,0.00,,,0.00,weatherlink.com 1.10,2013-04-24 03:26:00,